sat.trackr.live / text

‹ back to catalog

STARLINK-36278

NORAD 68685 · 2026-077Z

PAYLOAD ACTIVE UNKNOWN

§ Identity

Operator
Country
US
Launch date
2026-04-11
Launch site
AFWTR
Launch vehicle
Mass (kg)
RCS (m²)

Purposes: comms

External: N2YO · Heavens-Above · Gunter

§ Orbital elements

Epoch: 2026-05-25T04:22:45.126336Z

Period
91.42 min
Inclination
97.2859°
Eccentricity
0.0001308
Mean motion
15.75177456 rev/d
Perigee alt
343.2 km
Apogee alt
345.0 km
Semi-major
6,722.3 km
B*
1.7308e-3
RAAN
17.8722°
Arg perigee
77.3431°
Mean anomaly
282.7980°
Rev number
695

§ Raw data

STARLINK-362781 68685U 26077Z   26145.18246674  .00266102  00000+0  17308-2 0  99982 68685  97.2859  17.8722 0001308  77.3431 282.7980 15.75177456  6953

JSON: /api/v1/satellites/68685 · /tle

For live sub-satellite position, see the globe view (requires WebGL).

§ Visibility from observer

Set your observer location to see the next 7 days of passes ≥ 10°. The values pass through the URL so the page stays shareable.

No JS? Fill the form by hand. The geolocation button needs JavaScript.